Location: Narragansett
(41.4496°N, 71.4488°W)
Time: 18:04:49
(UTC+00:00)

Nauka - Pass Details

Date: 27 September 2021
Orbit: 417 x 423 km, 51.6° (Epoch: 26 October)

Event Time Altitude Azimuth Distance (km) Brightness Sun altitude
Rises 01:13:00 0° 309° (NW) 2,368 ? -29.4°
Reaches altitude 10° 01:15:22 10° 324° (NW) 1,503 ? -29.8°
Enters shadow 01:15:47 12° 329° (NNW) 1,371 ? -29.9°
